• In Deutschland
  • Länderverzeichnis
  • Für 7 Tage
  • Wassertemperatur
  • Satellitenkarten
  • Wetterkarte
  • Widgets
  • user-avatar
    Anmelden

    Stündliche Wetter Tirana

    Heute, 25 April, Dienstag

    Zeit Temperatur Niederschläge Wind Luftdruck Luftfeuchtigkeit
    00:00 +9°C° 0 mm 3 m/S 757 mmHg 87%
    01:00 +9°C° 0 mm 3 m/S 757 mmHg 88%
    02:00 +9°C° 0 mm 3 m/S 757 mmHg 88%
    03:00 +9°C° 0 mm 3 m/S 757 mmHg 88%
    04:00 +9°C° 0 mm 3 m/S 757 mmHg 88%
    05:00 +11°C° 0 mm 3 m/S 757 mmHg 81%
    06:00 +13°C° 0 mm 3 m/S 757 mmHg 74%
    07:00 +16°C° 0 mm 3 m/S 757 mmHg 65%
    08:00 +18°C° 0 mm 3 m/S 757 mmHg 59%
    09:00 +19°C° 0 mm 4 m/S 757 mmHg 53%
    10:00 +20°C° 0 mm 4 m/S 757 mmHg 48%
    11:00 +21°C° 0 mm 5 m/S 757 mmHg 47%
    12:00 +21°C° 0 mm 5 m/S 756 mmHg 46%
    13:00 +22°C° 0 mm 6 m/S 756 mmHg 46%
    14:00 +21°C° 0 mm 6 m/S 756 mmHg 50%
    15:00 +20°C° 0 mm 6 m/S 756 mmHg 55%
    16:00 +20°C° 0 mm 6 m/S 755 mmHg 59%
    17:00 +17°C° 0 mm 5 m/S 755 mmHg 69%
    18:00 +15°C° 0 mm 5 m/S 755 mmHg 78%
    19:00 +13°C° 0 mm 4 m/S 755 mmHg 87%
    20:00 +12°C° 0 mm 4 m/S 756 mmHg 89%
    21:00 +11°C° 0 mm 4 m/S 756 mmHg 90%
    22:00 +11°C° 0 mm 4 m/S 756 mmHg 92%
    23:00 +10°C° 0 mm 3 m/S 756 mmHg 91%

    Morgen, 26 April, Mittwoch

    Zeit Temperatur Niederschläge Wind Luftdruck Luftfeuchtigkeit
    00:00 +10°C° 0 mm 3 m/S 756 mmHg 91%
    01:00 +10°C° 0 mm 3 m/S 756 mmHg 91%
    02:00 +10°C° 0 mm 3 m/S 756 mmHg 89%
    03:00 +10°C° 0 mm 3 m/S 756 mmHg 88%
    04:00 +9°C° 0 mm 3 m/S 755 mmHg 86%
    05:00 +11°C° 0 mm 3 m/S 755 mmHg 78%
    06:00 +13°C° 0 mm 3 m/S 755 mmHg 70%
    07:00 +16°C° 0 mm 3 m/S 755 mmHg 62%
    08:00 +18°C° 0 mm 3 m/S 755 mmHg 52%
    09:00 +19°C° 0 mm 3 m/S 755 mmHg 43%
    10:00 +21°C° 0 mm 4 m/S 755 mmHg 34%
    11:00 +22°C° 0 mm 4 m/S 755 mmHg 33%
    12:00 +22°C° 0 mm 5 m/S 755 mmHg 33%
    13:00 +23°C° 0 mm 6 m/S 755 mmHg 32%
    14:00 +22°C° 0 mm 6 m/S 755 mmHg 35%
    15:00 +22°C° 0 mm 5 m/S 755 mmHg 39%
    16:00 +21°C° 0 mm 5 m/S 754 mmHg 42%
    17:00 +19°C° 0 mm 5 m/S 755 mmHg 53%
    18:00 +15°C° 0 mm 4 m/S 755 mmHg 64%
    19:00 +13°C° 0 mm 4 m/S 755 mmHg 75%
    20:00 +12°C° 0 mm 4 m/S 755 mmHg 76%
    21:00 +12°C° 0 mm 3 m/S 755 mmHg 77%
    22:00 +11°C° 0 mm 3 m/S 756 mmHg 78%
    23:00 +11°C° 0 mm 3 m/S 755 mmHg 77%

    übermorgen, 27 April, Donnerstag

    Zeit Temperatur Niederschläge Wind Luftdruck Luftfeuchtigkeit
    00:00 +11°C° 0 mm 3 m/S 755 mmHg 76%
    01:00 +11°C° 0 mm 3 m/S 755 mmHg 75%
    02:00 +11°C° 0 mm 3 m/S 755 mmHg 73%
    03:00 +11°C° 0 mm 3 m/S 755 mmHg 70%
    04:00 +11°C° 0 mm 3 m/S 754 mmHg 68%
    05:00 +13°C° 0 mm 3 m/S 754 mmHg 62%
    06:00 +16°C° 0 mm 3 m/S 754 mmHg 56%
    07:00 +18°C° 0 mm 3 m/S 754 mmHg 50%
    08:00 +20°C° 0 mm 3 m/S 754 mmHg 44%
    09:00 +22°C° 0 mm 3 m/S 754 mmHg 38%
    10:00 +25°C° 0 mm 3 m/S 755 mmHg 32%
    11:00 +25°C° 0 mm 4 m/S 754 mmHg 31%
    12:00 +26°C° 0 mm 4 m/S 754 mmHg 31%
    13:00 +26°C° 0 mm 5 m/S 754 mmHg 31%
    14:00 +26°C° 0 mm 5 m/S 754 mmHg 33%
    15:00 +25°C° 0 mm 5 m/S 753 mmHg 36%
    16:00 +23°C° 0 mm 5 m/S 753 mmHg 39%
    17:00 +21°C° 0 mm 5 m/S 753 mmHg 49%
    18:00 +18°C° 0 mm 4 m/S 753 mmHg 58%
    19:00 +14°C° 0 mm 4 m/S 753 mmHg 68%
    20:00 +14°C° 0 mm 4 m/S 754 mmHg 66%
    21:00 +14°C° 0 mm 4 m/S 754 mmHg 65%
    22:00 +14°C° 0 mm 4 m/S 754 mmHg 63%
    23:00 +14°C° 0 mm 4 m/S 754 mmHg 62%

    28 April, Freitag

    Zeit Temperatur Niederschläge Wind Luftdruck Luftfeuchtigkeit
    00:00 +14°C° 0 mm 4 m/S 753 mmHg 61%
    01:00 +14°C° 0 mm 4 m/S 753 mmHg 60%
    02:00 +14°C° 0 mm 4 m/S 753 mmHg 60%
    03:00 +14°C° 0 mm 4 m/S 753 mmHg 59%
    04:00 +13°C° 0 mm 4 m/S 753 mmHg 59%
    05:00 +15°C° 0 mm 4 m/S 753 mmHg 55%
    06:00 +18°C° 0 mm 4 m/S 753 mmHg 50%
    07:00 +20°C° 0 mm 4 m/S 753 mmHg 46%
    08:00 +22°C° 0 mm 5 m/S 753 mmHg 40%
    09:00 +25°C° 0 mm 5 m/S 753 mmHg 35%
    10:00 +26°C° 0 mm 6 m/S 753 mmHg 30%
    11:00 +27°C° 0 mm 7 m/S 752 mmHg 30%
    12:00 +27°C° 0 mm 7 m/S 752 mmHg 31%
    13:00 +27°C° 0 mm 8 m/S 752 mmHg 32%
    14:00 +26°C° 0,1 mm 7 m/S 752 mmHg 37%
    15:00 +24°C° 0,1 mm 6 m/S 751 mmHg 42%
    16:00 +23°C° 0,1 mm 5 m/S 751 mmHg 47%
    17:00 +21°C° 0,1 mm 6 m/S 751 mmHg 52%
    18:00 +19°C° 0,1 mm 6 m/S 751 mmHg 56%
    19:00 +16°C° 0,1 mm 6 m/S 751 mmHg 61%
    20:00 +16°C° 0 mm 6 m/S 752 mmHg 60%
    21:00 +16°C° 0 mm 6 m/S 752 mmHg 59%
    22:00 +16°C° 0 mm 6 m/S 752 mmHg 59%
    23:00 +15°C° 0 mm 5 m/S 752 mmHg 58%

    29 April, Samstag

    Zeit Temperatur Niederschläge Wind Luftdruck Luftfeuchtigkeit
    00:00 +15°C° 0 mm 5 m/S 751 mmHg 58%
    01:00 +15°C° 0 mm 4 m/S 751 mmHg 58%
    02:00 +15°C° 0 mm 4 m/S 751 mmHg 57%
    03:00 +15°C° 0 mm 4 m/S 751 mmHg 56%
    04:00 +14°C° 0 mm 4 m/S 750 mmHg 56%
    05:00 +17°C° 0,1 mm 4 m/S 750 mmHg 53%
    06:00 +18°C° 0,1 mm 4 m/S 751 mmHg 51%
    07:00 +20°C° 0,1 mm 4 m/S 751 mmHg 49%
    08:00 +20°C° 0,5 mm 3 m/S 751 mmHg 51%
    09:00 +20°C° 0,5 mm 3 m/S 751 mmHg 53%
    10:00 +20°C° 0,5 mm 3 m/S 751 mmHg 55%
    11:00 +20°C° 0,5 mm 3 m/S 751 mmHg 55%
    12:00 +21°C° 0,5 mm 3 m/S 751 mmHg 54%
    13:00 +21°C° 0,5 mm 3 m/S 751 mmHg 53%
    14:00 +21°C° 0,2 mm 3 m/S 751 mmHg 55%
    15:00 +21°C° 0,2 mm 4 m/S 751 mmHg 57%
    16:00 +21°C° 0,2 mm 4 m/S 750 mmHg 59%
    17:00 +19°C° 0,1 mm 4 m/S 751 mmHg 68%
    18:00 +17°C° 0,1 mm 4 m/S 751 mmHg 77%
    19:00 +14°C° 0,1 mm 3 m/S 751 mmHg 86%
    20:00 +16°C° 0,1 mm 3 m/S 751 mmHg 84%
    21:00 +16°C° 0,1 mm 3 m/S 752 mmHg 82%
    22:00 +16°C° 0,1 mm 3 m/S 752 mmHg 80%
    23:00 +14°C° 0 mm 3 m/S 752 mmHg 80%

    30 April, Sonntag

    Zeit Temperatur Niederschläge Wind Luftdruck Luftfeuchtigkeit
    00:00 +14°C° 0 mm 3 m/S 751 mmHg 80%
    01:00 +14°C° 0 mm 4 m/S 751 mmHg 79%
    02:00 +14°C° 0 mm 4 m/S 751 mmHg 79%
    03:00 +14°C° 0 mm 4 m/S 751 mmHg 79%
    04:00 +15°C° 0 mm 4 m/S 751 mmHg 78%
    05:00 +17°C° 0 mm 4 m/S 751 mmHg 76%
    06:00 +18°C° 0 mm 4 m/S 751 mmHg 73%
    07:00 +19°C° 0 mm 4 m/S 751 mmHg 71%
    08:00 +21°C° 0 mm 4 m/S 751 mmHg 63%
    09:00 +24°C° 0 mm 3 m/S 751 mmHg 55%
    10:00 +26°C° 0 mm 3 m/S 751 mmHg 48%
    11:00 +26°C° 0,1 mm 4 m/S 751 mmHg 47%
    12:00 +27°C° 0,1 mm 5 m/S 751 mmHg 46%
    13:00 +27°C° 0,1 mm 5 m/S 750 mmHg 45%
    14:00 +26°C° 0,2 mm 5 m/S 750 mmHg 50%
    15:00 +25°C° 0,2 mm 5 m/S 750 mmHg 54%
    16:00 +23°C° 0,2 mm 5 m/S 750 mmHg 59%
    17:00 +21°C° 0,3 mm 4 m/S 750 mmHg 67%
    18:00 +20°C° 0,3 mm 4 m/S 750 mmHg 75%
    19:00 +18°C° 0,3 mm 3 m/S 750 mmHg 84%
    20:00 +17°C° 0,1 mm 3 m/S 751 mmHg 85%
    21:00 +17°C° 0,1 mm 3 m/S 751 mmHg 86%
    22:00 +17°C° 0,1 mm 3 m/S 751 mmHg 88%
    23:00 +16°C° 0,1 mm 3 m/S 751 mmHg 88%
    Mehr zeigen